C/2015 X5 ( PanSTARRS )

Japanese version
Home page
Updated on February 13, 2018

---------------------------------------------------------------------

* Profile

Discovery Date December 6, 2015
Magnitude 21.3 mag
Discoverer Pan-STARRS 1 telescope (Haleakala)

* Pictures

* Orbital Elements

Epoch 2018 Jan. 2.0 TT = JDT 2458120.5
T 2017 Dec. 31.02684 TT                                 MPCW
q   6.8017457            (2000.0)            P               Q
z  -0.0004900      Peri.   27.75213     -0.25136228     +0.67028901
 +/-0.0000008      Node   122.31452     +0.66183350     -0.40735822
e   1.0033330      Incl.  124.29089     +0.70625308     +0.62029987
From 145 observations 2015 Dec. 6-2018 Jan. 22, mean residual 0".4.

* Magnitudes Graph

        m1 = 7.0 + 5 log d + 10.0 log r

---------------------------------------------------------------------

The orbital elements are published on M.P.E.C. 2018-B155.
The magnitudes graphs are made with Comet for Windows.

---------------------------------------------------------------------

Copyright(C) Seiichi Yoshida (comet@aerith.net). All rights reserved.